Location: Unspecified
(48.8656°N, 0.0000°E)
Time: 10:31:28
(UTC+00:00)

SR - Pass Details

Date: 04 July 2019
Orbit: 580 x 876 km, 66.7° (Epoch: 20 July)

Event Time Altitude Azimuth Distance (km) Brightness Sun altitude
Rises 01:42:32 0° 231° (SW) 2,792 - -14.9°
Reaches altitude 10° 01:44:47 10° 238° (WSW) 1,904 - -14.8°
Exits shadow 01:45:57 18° 244° (WSW) 1,476 ? -14.7°
Maximum altitude 01:48:53 46° 312° (NW) 807 ? -14.5°
Drops below altitude 10° 01:53:12 10° 27° (NNE) 2,003 ? -14.2°
Sets 01:55:38 0° 33° (NNE) 2,955 ? -14.0°
